Simultaneous Nadir Overpasses (SNOs) Predictions

Prediction of SNOs between GOES-16 and METOP-B Satellite Orbit:

Table of predicted SNOs for the next 14.0 days since TLE Epoch: 5/17/2019
Index Date Time (GOES-16) GOES-16 Lat,Lon METOP-B Lat,Lon Distance(km) Time Diff (sec)
1 05/19/2019 02:31:56 0.00, -75.17 -0.02, -75.28 12.22 80
2 05/21/2019 14:30:09 0.01, -75.18 -0.09, -74.84 38.67 80
3 05/23/2019 02:49:09 -0.01, -75.16 -0.97, -79.43 487.03 80
4 05/24/2019 02:25:49 -0.01, -75.16 0.12, -74.44 82.24 80
5 05/25/2019 14:44:42 0.01, -75.18 0.86, -79.00 435.06 80
6 05/26/2019 14:26:42 0.01, -75.19 -0.23, -74.00 134.68 80
7 05/28/2019 02:45:43 -0.01, -75.19 -0.76, -78.61 389.55 80
8 05/29/2019 02:22:24 -0.01, -75.20 0.34, -73.61 180.49 80
9 05/30/2019 14:41:16 0.01, -75.23 0.66, -78.18 335.70 80




NCC Satellite Simultaneous Nadir Overpasses (SNOs) Prediction Service
